Weather History for KCBM - November, 2012

Change the Weather History Date:

Friday, November 30, 2012

  Actual Average Record
Temperature  
Mean Temperature 47 °F -  
Max Temperature 64 °F 59 °F 77 °F (2006)
Min Temperature 30 °F 39 °F 23 °F (2013)
Degree Days  
Heating Degree Days 18    
Moisture  
Dew Point 35 °F    
Average Humidity 94    
Maximum Humidity 100    
Minimum Humidity 48    
Precipitation  
Precipitation 0.00 in - - ()
Sea Level Pressure  
Sea Level Pressure 30.30 in    
Wind  
Wind Speed 3 mph (SSE)    
Max Wind Speed 7 mph    
Max Gust Speed -    
Visibility 3 miles    
Events Fog    
Averages and records for this station are not official NWS values.
T = Trace of Precipitation, MM = Missing Value Source: NWS Daily Summary

Daily Weather History Graph

Daily Weather History Graph

Search for Another Location

Airport or City:

Trip Planner

Search our weather history database for the weather conditions in past years. The results will help you decide how hot, cold, wet, or windy it might be!

Date:

Astronomy

Nov. 30, 2012 Rise Set
Actual Time 6:39 AM CST 4:45 PM CST
Civil Twilight 6:12 AM CST 5:12 PM CST
Nautical Twilight 5:41 AM CST 5:43 PM CST
Astronomical Twilight 5:11 AM CST 6:13 PM CST
Moon 6:39 PM CST (11/30) 8:11 AM CST (11/30)
Length of Visible Light 11h 00m
Length of Day
10h 05m
Waning Gibbous, 96% of the Moon is Illuminated
Nov 30
Waning Gibbous
Dec 6
Last Quarter
Dec 13
New
Dec 19
First Quarter
Dec 28
Full

Hourly Weather History & Observations

Time (CST) Temp. Windchill Dew Point Humidity Pressure Visibility Wind Dir Wind Speed Gust Speed Precip Events Conditions
12:55 AM 34.5 °F 28.6 °F 32.4 °F 92% 30.31 in 10.0 mi SSE 6.9 mph - N/A   Clear
1:55 AM 34.7 °F 30.6 °F 33.4 °F 95% 30.32 in 6.0 mi SSE 4.6 mph - N/A   Clear
2:26 AM 33.8 °F 28.6 °F 33.8 °F 100% 30.31 in 3.0 mi SE 5.8 mph - N/A   Clear
2:27 AM 35.6 °F 30.7 °F 33.8 °F 93% 30.31 in 2.5 mi SE 5.8 mph - N/A   Clear
2:28 AM 35.6 °F 30.7 °F 33.8 °F 93% 30.31 in 1.8 mi SE 5.8 mph - N/A   Clear
2:29 AM 33.8 °F 28.6 °F 33.8 °F 100% 30.31 in 1.5 mi SE 5.8 mph - N/A   Clear
2:30 AM 33.8 °F 28.6 °F 33.8 °F 100% 30.31 in 1.2 mi SSE 5.8 mph - N/A   Clear
2:31 AM 33.8 °F 28.6 °F 32.0 °F 93% 30.31 in 1.0 mi SSE 5.8 mph - N/A   Clear
2:33 AM 33.8 °F 28.6 °F 32.0 °F 93% 30.31 in 0.8 mi SSE 5.8 mph - N/A   Clear
2:34 AM 33.8 °F 28.6 °F 32.0 °F 93% 30.31 in 0.8 mi SSE 5.8 mph - N/A   Clear
2:35 AM 33.8 °F 29.6 °F 32.0 °F 93% 30.31 in 0.8 mi SSE 4.6 mph - N/A   Clear
2:36 AM 33.8 °F 29.6 °F 32.0 °F 93% 30.31 in 0.5 mi SSE 4.6 mph - N/A Fog Fog
2:39 AM 33.8 °F 28.6 °F 32.0 °F 93% 30.31 in 0.5 mi SSE 5.8 mph - N/A Fog Fog
2:48 AM 33.8 °F 28.6 °F 33.8 °F 100% 30.31 in 0.5 mi SSE 5.8 mph - N/A Fog Fog
2:49 AM 33.8 °F 28.6 °F 33.8 °F 100% 30.31 in 0.5 mi SSE 5.8 mph - N/A Fog Fog
2:50 AM 33.8 °F 28.6 °F 33.8 °F 100% 30.31 in 0.5 mi SSE 5.8 mph - N/A Fog Fog
2:51 AM 33.8 °F 28.6 °F 33.8 °F 100% 30.31 in 0.8 mi SSE 5.8 mph - N/A   Clear
2:53 AM 33.8 °F 27.7 °F 33.8 °F 100% 30.31 in 1.0 mi SSE 6.9 mph - N/A   Clear
2:54 AM 33.8 °F 27.7 °F 33.8 °F 100% 30.30 in 1.2 mi SSE 6.9 mph - N/A   Clear
2:55 AM 34.0 °F 28.0 °F 32.9 °F 96% 30.30 in 1.8 mi SSE 6.9 mph - N/A   Clear
2:56 AM 33.8 °F 27.7 °F 32.0 °F 93% 30.30 in 3.0 mi SSE 6.9 mph - N/A   Clear
2:57 AM 33.8 °F 28.6 °F 32.0 °F 93% 30.30 in 5.0 mi SSE 5.8 mph - N/A   Clear
3:40 AM 35.6 °F - 33.8 °F 93% 30.31 in 4.0 mi Calm Calm - N/A   Clear
3:41 AM 35.6 °F 32.8 °F 33.8 °F 93% 30.31 in 3.0 mi SSE 3.5 mph - N/A   Clear
3:42 AM 35.6 °F 32.8 °F 33.8 °F 93% 30.31 in 2.5 mi SSE 3.5 mph - N/A   Clear
3:44 AM 33.8 °F - 33.8 °F 100% 30.31 in 1.8 mi Calm Calm - N/A   Clear
3:49 AM 33.8 °F - 32.0 °F 93% 30.31 in 2.0 mi Calm Calm - N/A   Clear
3:52 AM 32.0 °F - 32.0 °F 100% 30.31 in 3.0 mi Calm Calm - N/A   Clear
3:53 AM 32.0 °F - 32.0 °F 100% 30.31 in 5.0 mi Calm Calm - N/A   Clear
3:55 AM 32.7 °F - 31.5 °F 95% 30.31 in 6.0 mi Calm Calm - N/A   Clear
4:25 AM 30.2 °F - 30.2 °F 100% 30.31 in 4.0 mi Calm Calm - N/A   Clear
4:27 AM 30.2 °F - 30.2 °F 100% 30.31 in 3.0 mi Calm Calm - N/A   Clear
4:30 AM 30.2 °F - 28.4 °F 93% 30.31 in 4.0 mi Calm Calm - N/A   Clear
4:36 AM 32.0 °F - 30.2 °F 93% 30.31 in 5.0 mi Calm Calm - N/A   Clear
4:55 AM 33.1 °F - 31.8 °F 95% 30.32 in 7.0 mi Calm Calm - N/A   Clear
5:12 AM 33.8 °F - 32.0 °F 93% 30.32 in 4.0 mi Calm Calm - N/A   Clear
5:13 AM 33.8 °F - 32.0 °F 93% 30.32 in 2.5 mi Calm Calm - N/A   Clear
5:15 AM 33.8 °F - 32.0 °F 93% 30.32 in 1.8 mi Calm Calm - N/A   Clear
5:18 AM 33.8 °F - 32.0 °F 93% 30.32 in 1.5 mi Calm Calm - N/A   Clear
5:20 AM 33.8 °F - 32.0 °F 93% 30.32 in 1.5 mi Calm Calm - N/A   Clear
5:21 AM 33.8 °F - 32.0 °F 93% 30.33 in 1.2 mi Calm Calm - N/A   Clear
5:22 AM 33.8 °F - 32.0 °F 93% 30.32 in 1.5 mi Calm Calm - N/A   Clear
5:24 AM 32.0 °F - 32.0 °F 100% 30.33 in 1.8 mi Calm Calm - N/A   Clear
5:25 AM 32.0 °F - 32.0 °F 100% 30.33 in 2.0 mi Calm Calm - N/A   Clear
5:26 AM 32.0 °F - 32.0 °F 100% 30.33 in 1.8 mi Calm Calm - N/A   Clear
5:29 AM 32.0 °F - 30.2 °F 93% 30.33 in 2.0 mi Calm Calm - N/A   Clear
5:32 AM 32.0 °F - 30.2 °F 93% 30.32 in 3.0 mi Calm Calm - N/A   Clear
5:33 AM 32.0 °F - 30.2 °F 93% 30.32 in 4.0 mi Calm Calm - N/A   Clear
5:34 AM 32.0 °F - 30.2 °F 93% 30.32 in 4.0 mi Calm Calm - N/A   Clear
5:35 AM 32.0 °F - 30.2 °F 93% 30.32 in 5.0 mi Calm Calm - N/A   Clear
5:44 AM 32.0 °F - 32.0 °F 100% 30.32 in 4.0 mi Calm Calm - N/A   Clear
5:45 AM 32.0 °F - 32.0 °F 100% 30.32 in 3.0 mi Calm Calm - N/A   Clear
5:46 AM 32.0 °F - 32.0 °F 100% 30.32 in 2.0 mi Calm Calm - N/A   Clear
5:47 AM 32.0 °F - 32.0 °F 100% 30.32 in 1.8 mi Calm Calm - N/A   Clear
5:48 AM 32.0 °F - 32.0 °F 100% 30.32 in 1.2 mi Calm Calm - N/A   Clear
5:49 AM 32.0 °F - 32.0 °F 100% 30.33 in 1.0 mi Calm Calm - N/A   Clear
5:50 AM 32.0 °F - 32.0 °F 100% 30.33 in 0.8 mi Calm Calm - N/A   Clear
5:51 AM 32.0 °F - 30.2 °F 93% 30.32 in 0.8 mi Calm Calm - N/A   Clear
5:52 AM 32.0 °F - 30.2 °F 93% 30.32 in 0.5 mi Calm Calm - N/A Fog Fog
5:53 AM 32.0 °F - 30.2 °F 93% 30.32 in 0.5 mi Calm Calm - N/A Fog Light Freezing Fog
5:55 AM 31.8 °F - 30.7 °F 96% 30.32 in 2.0 mi Calm Calm - N/A   Clear
5:59 AM 32.0 °F - 30.2 °F 93% 30.32 in 0.8 mi Calm Calm - N/A   Clear
6:00 AM 32.0 °F - 30.2 °F 93% 30.32 in 0.8 mi Calm Calm - N/A   Clear
6:03 AM 30.2 °F - 30.2 °F 100% 30.33 in 1.5 mi Calm Calm - N/A   Clear
6:16 AM 30.2 °F - 30.2 °F 100% 30.33 in 2.0 mi Calm Calm - N/A   Clear
6:17 AM 30.2 °F - 30.2 °F 100% 30.33 in 1.2 mi Calm Calm - N/A   Clear
6:18 AM 32.0 °F - 30.2 °F 93% 30.33 in 1.0 mi Calm Calm - N/A   Clear
6:20 AM 30.2 °F - 30.2 °F 100% 30.33 in 0.8 mi Calm Calm - N/A   Clear
6:21 AM 30.2 °F - 30.2 °F 100% 30.33 in 0.8 mi Calm Calm - N/A   Clear
6:22 AM 30.2 °F - 30.2 °F 100% 30.33 in 0.8 mi Calm Calm - N/A   Clear
6:23 AM 32.0 °F - 30.2 °F 93% 30.33 in 0.8 mi Calm Calm - N/A   Clear
6:25 AM 32.0 °F - 30.2 °F 93% 30.33 in 1.0 mi Calm Calm - N/A   Clear
6:26 AM 32.0 °F - 30.2 °F 93% 30.34 in 1.2 mi Calm Calm - N/A   Clear
6:27 AM 32.0 °F - 30.2 °F 93% 30.33 in 1.5 mi Calm Calm - N/A   Clear
6:28 AM 32.0 °F - 30.2 °F 93% 30.33 in 2.0 mi Calm Calm - N/A   Partly Cloudy
6:29 AM 32.0 °F - 30.2 °F 93% 30.34 in 1.8 mi Calm Calm - N/A   Partly Cloudy
6:30 AM 32.0 °F - 30.2 °F 93% 30.33 in 1.2 mi Calm Calm - N/A   Partly Cloudy
6:31 AM 32.0 °F - 30.2 °F 93% 30.33 in 0.8 mi Calm Calm - N/A   Mist
6:32 AM 32.0 °F - 30.2 °F 93% 30.33 in 0.5 mi Calm Calm - N/A Fog Fog
6:33 AM 32.0 °F - 30.2 °F 93% 30.33 in 0.2 mi Calm Calm - N/A Fog Fog
6:36 AM 32.0 °F - 32.0 °F 100% 30.34 in 0.2 mi Calm Calm - N/A Fog Fog
6:37 AM 32.0 °F - 32.0 °F 100% 30.34 in 0.2 mi Calm Calm - N/A Fog Fog
6:38 AM 32.0 °F - 32.0 °F 100% 30.34 in 0.2 mi Calm Calm - N/A Fog Fog
6:55 AM 31.3 °F - 30.4 °F 96% 30.34 in 0.2 mi Calm Calm - N/A Fog Light Freezing Fog
7:29 AM 32.0 °F - 32.0 °F 100% 30.35 in 0.2 mi Calm Calm - N/A Fog Fog
7:30 AM 32.0 °F - 32.0 °F 100% 30.35 in 0.2 mi Calm Calm - N/A Fog Fog
7:34 AM 32.0 °F - 32.0 °F 100% 30.34 in 0.5 mi Calm Calm - N/A Fog Fog
7:38 AM 32.0 °F - 32.0 °F 100% 30.35 in 0.8 mi Calm Calm - N/A   Clear
7:46 AM 33.8 °F - 32.0 °F 93% 30.35 in 1.0 mi Calm Calm - N/A   Clear
7:47 AM 33.8 °F - 33.8 °F 100% 30.35 in 1.2 mi Calm Calm - N/A   Clear
7:48 AM 33.8 °F - 33.8 °F 100% 30.35 in 1.8 mi Calm Calm - N/A   Clear
7:49 AM 33.8 °F - 33.8 °F 100% 30.35 in 2.0 mi Calm Calm - N/A   Clear
7:53 AM 35.6 °F - 33.8 °F 93% 30.35 in 3.0 mi Calm Calm - N/A   Clear
7:55 AM 35.2 °F - 34.9 °F 99% 30.35 in 4.0 mi Calm Calm - N/A   Clear
7:56 AM 35.6 °F - 35.6 °F 100% 30.35 in 5.0 mi Calm Calm - N/A   Clear
8:55 AM 43.9 °F - 43.9 °F 100% 30.36 in 9.0 mi Calm Calm - N/A   Clear
9:55 AM 54.1 °F - 45.3 °F 72% 30.35 in 10.0 mi Variable 4.6 mph - N/A   Clear
10:55 AM 59.5 °F - 45.7 °F 60% 30.33 in 10.0 mi SSE 6.9 mph - N/A   Clear
11:55 AM 61.7 °F - 45.5 °F 55% 30.30 in 10.0 mi Variable 4.6 mph - N/A   Clear
12:55 PM 62.8 °F - 43.0 °F 48% 30.27 in 10.0 mi Variable 4.6 mph - N/A   Clear
1:55 PM 64.0 °F - 44.1 °F 48% 30.25 in 10.0 mi WSW 5.8 mph - N/A   Clear
2:55 PM 63.9 °F - 45.3 °F 51% 30.24 in 7.0 mi South 5.8 mph - N/A   Clear
3:55 PM 62.8 °F - 45.7 °F 54% 30.24 in 10.0 mi South 6.9 mph - N/A   Clear
4:55 PM 55.9 °F - 45.3 °F 68% 30.24 in 10.0 mi South 3.5 mph - N/A   Clear
5:55 PM 47.7 °F - 43.9 °F 87% 30.25 in 10.0 mi Calm Calm - N/A   Clear
6:55 PM 47.1 °F - 44.1 °F 89% 30.25 in 10.0 mi Calm Calm - N/A   Clear
7:55 PM 44.6 °F - 43.3 °F 95% 30.25 in 10.0 mi Calm Calm - N/A   Clear
8:49 PM 42.8 °F - 41.0 °F 93% 30.25 in 3.0 mi Calm Calm - N/A   Clear
8:50 PM 42.8 °F - 41.0 °F 93% 30.25 in 2.0 mi Calm Calm - N/A   Clear
8:51 PM 42.8 °F - 41.0 °F 93% 30.25 in 1.5 mi Calm Calm - N/A   Clear
8:52 PM 42.8 °F - 41.0 °F 93% 30.25 in 1.0 mi Calm Calm - N/A   Clear
8:54 PM 42.8 °F - 41.0 °F 93% 30.25 in 0.8 mi Calm Calm - N/A   Clear
8:55 PM 42.1 °F - 41.0 °F 96% 30.25 in 0.8 mi Calm Calm - N/A   Clear
8:58 PM 41.0 °F - 41.0 °F 100% 30.25 in 1.0 mi Calm Calm - N/A   Clear
9:00 PM 41.0 °F - 41.0 °F 100% 30.25 in 1.2 mi Calm Calm - N/A   Clear
9:01 PM 41.0 °F - 41.0 °F 100% 30.25 in 1.8 mi Calm Calm - N/A   Clear
9:02 PM 41.0 °F - 41.0 °F 100% 30.25 in 3.0 mi Calm Calm - N/A   Clear
9:03 PM 41.0 °F - 41.0 °F 100% 30.25 in 5.0 mi Calm Calm - N/A   Clear
9:19 PM 42.8 °F - 41.0 °F 93% 30.25 in 4.0 mi Calm Calm - N/A   Clear
9:20 PM 42.8 °F - 41.0 °F 93% 30.25 in 2.5 mi Calm Calm - N/A   Clear
9:22 PM 42.8 °F - 41.0 °F 93% 30.25 in 1.8 mi Calm Calm - N/A   Clear
9:29 PM 42.8 °F - 42.8 °F 100% 30.25 in 2.0 mi Calm Calm - N/A   Clear
9:30 PM 42.8 °F - 42.8 °F 100% 30.25 in 3.0 mi Calm Calm - N/A   Clear
9:31 PM 42.8 °F - 42.8 °F 100% 30.25 in 4.0 mi Calm Calm - N/A   Clear
9:37 PM 41.0 °F - 41.0 °F 100% 30.25 in 3.0 mi Calm Calm - N/A   Clear
9:38 PM 41.0 °F - 41.0 °F 100% 30.25 in 2.5 mi Calm Calm - N/A   Clear
9:48 PM 41.0 °F - 41.0 °F 100% 30.25 in 3.0 mi Calm Calm - N/A   Clear
9:49 PM 42.8 °F - 41.0 °F 93% 30.25 in 4.0 mi Calm Calm - N/A   Clear
9:50 PM 42.8 °F - 41.0 °F 93% 30.25 in 5.0 mi Calm Calm - N/A   Clear
9:53 PM 42.8 °F - 41.0 °F 93% 30.25 in 3.0 mi Calm Calm - N/A   Clear
9:54 PM 42.8 °F - 41.0 °F 93% 30.25 in 2.0 mi Calm Calm - N/A   Clear
9:55 PM 42.1 °F - 41.5 °F 98% 30.25 in 2.0 mi Calm Calm - N/A   Clear
10:03 PM 41.0 °F - 41.0 °F 100% 30.25 in 4.0 mi Calm Calm - N/A   Clear
10:04 PM 41.0 °F - 41.0 °F 100% 30.25 in 7.0 mi Calm Calm - N/A   Clear
10:55 PM 40.3 °F - 39.7 °F 98% 30.25 in 9.0 mi Calm Calm - N/A   Clear
11:55 PM 40.1 °F - 39.6 °F 98% 30.25 in 10.0 mi Calm Calm - N/A   Clear